Regional Weather Roundup
Issued by NWS Newport/Morehead, NC

Current Version | Previous Version | Graphics & Text | Print | Product List | Glossary Off
Versions: 1 2 3 4 5 6 7 8 9 10 11 12 13 14 15 16 17 18 19 20 21 22 23 24 25 26 27 28 29 30 31 32 33 34 35 36 37 38 39 40 41 42 43 44 45 46 47 48 49 50

000
ASUS42 KMHX 281827
RWRMHX
WEATHER ROUNDUP FOR EASTERN NORTH CAROLINA
NATIONAL WEATHER SERVICE NEWPORT/MOREHEAD CITY NC
100 PM EST SAT FEB 28 2015

NOTE: "FAIR" INDICATES FEW OR NO CLOUDS BELOW 12,000 FEET
WITH NO SIGNIFICANT WEATHER AND/OR OBSTRUCTIONS TO VISIBILITY

NCZ015>017-031-032-045>047-102-103-281900-
NORTH COAST

CITY           SKY/WX    TMP DP  RH WIND       PRES   REMARKS
EDENTON        PTSUNNY   36  18  48 E8        30.76F
ELIZABETH CITY CLOUDY    33  17  51 NE12      30.78F
KITTY HAWK     MOCLDY    33  21  62 N13G20    30.74F
MANTEO         PTSUNNY   34  21  60 N20G25    30.76F

$$

NCZ045>047-081-094-103-104-281900-
CENTRAL COAST

CITY           SKY/WX    TMP DP  RH WIND       PRES   REMARKS
FRISCO         CLOUDY    36  27  69 N13G28    30.72F
SWANQUARTER      N/A     37 N/A N/A NE8G23    30.68F

$$

NCZ095-097-098-100-101-281900-
SOUTHERN COAST

CITY           SKY/WX    TMP DP  RH WIND       PRES   REMARKS
BEAUFORT       SUNNY     42  28  57 N21G30    30.69F
CEDAR ISLAND     N/A     39 N/A N/A N17G24    30.74F
JACKSONVILLE   MOSUNNY   45  23  42 N16       30.68F
PINEY ISLAND     N/A    N/A N/A N/A MISG      30.71F
WILMINGTON     PTSUNNY   47  24  40 NE15      30.67F


$$

NCZ011>013-027>030-043-044-078>080-089-090>093-098-281900-
COASTAL PLAIN

CITY           SKY/WX    TMP DP  RH WIND       PRES   REMARKS
AHOSKIE        MOSUNNY   34  10  38 N9        30.78F
CLINTON        MOSUNNY   41  25  53 E7        30.72F
ELIZABETHTOWN  MOSUNNY   44  21  40 NE5       30.69F
GOLDSBORO      MOSUNNY   37  24  61 NE9       30.71F
GREENVILLE     MOSUNNY   36  19  51 E10G17    30.73F
HAVELOCK       PTSUNNY   45  22  40 NE20      30.71F
KENANSVILLE    MOSUNNY   39  22  51 N9G16     30.72F
KINSTON        MOSUNNY   39  23  52 NE14G20   30.73F
NEW BERN       MOSUNNY   42  22  44 NE15G22   30.73F
RICHLANDS      MOSUNNY   41  19  42 NE13      30.70F
ROCKY MOUNT    MOSUNNY   34  11  38 N12       30.76F
WASHINGTON     PTSUNNY   38  20  48 N12G18    30.73F
WHITEVILLE     SUNNY     44  22  41 NE9       30.66F

$$

AMZ130-135-150-152-154-156-158-170-250-252-270-ANZ085-086-088-633-658-670-281900-
MARINE OBSERVATIONS

STATION/POSITION TIME  TEMP    WIND        PRES    WAVE   SWELL
                       AIR SEA DIR/SP/G            HT/PER HT/PER
                 (UTC) (F)     (DEG/KT/KT) (MB)    (FT/S) (FT/S)
CHESAPEAKE LIGHT 1800   27      10/ 15/ 18 1043.3
64 E VA BEACH    1750   38 58  360/ 16/ 19 1040.9    5/11   3/11
DUCK             1706   30 34   10/ 15/ 19 1041.6
2 E DUCK         1711      34                N/A     6/ 6   2/11
10 NE DUCK       1722      37                N/A     6/11   2/11
OREGON INLET     1712   33 37  360/ 18/ 24 1041.4
HATTERAS CG      1706   34 39   20/ 22/ 29 1040.5
CAPE LOOKOUT     1800   41      20/ 22/ 26 1038.6
BEAUFORT LAB     1800   40 40   20/ 16/ 22 1038.2
27 SE WRIGHTSVLE NOT AVBL
5 SE WRIGHTSVLE  NOT AVBL
225 S CAPE HAT   1750   66 69   60/ 19/ 25 1032.1    9/ 8   3/11
41 SE CHARLESTON 1750   53 65   40/ 27/ 33 1033.4    9/ 8   3/15

$$



USA.gov is the U.S. government's official web portal to all federal, state and local government web resources and services.